Annette Island, AK

3:44 AM AKDT on August 19, 2017 (GMT -0800)
Annette Island

Weather History for PANT - April, 2013

Change the Weather History Date:

Thursday, April 4, 2013

  Actual Average Record
Temperature  
Mean Temperature 47 °F 42 °F  
Max Temperature 51 °F 48 °F 59 °F (1977)
Min Temperature 42 °F 37 °F 23 °F (1954)
Degree Days  
Heating Degree Days 18 23  
Month to date heating degree days 87 92  
Since 1 July heating degree days 5425 5414  
Cooling Degree Days 0    
Month to date cooling degree days 0  
Year to date cooling degree days 0  
Moisture  
Dew Point 34 °F    
Average Humidity 0    
Maximum Humidity 0    
Minimum Humidity 0    
Precipitation  
Precipitation 0.00 in 0.25 in 3.74 in (1955)
Month to date precipitation 0.00 1.00  
Year to date precipitation 25.92 27.09  
Snow  
Snow 0.00 in 0.10 in 3.20 in (1988)
Month to date snowfall 0.0 0.4  
Since 1 July snowfall 12.8 33.8  
Snow Depth 0.00 in    
Sea Level Pressure  
Sea Level Pressure 29.74 in    
Wind  
Wind Speed 5 mph (NW)    
Max Wind Speed 10 mph    
Max Gust Speed 13 mph    
Visibility 10 miles    
Events Rain    
T = Trace of Precipitation, MM = Missing Value Source: NWS Daily Summary

Daily Weather History Graph

Daily Weather History Graph

Search for Another Location

Airport or City:

Trip Planner

Search our weather history database for the weather conditions in past years. The results will help you decide how hot, cold, wet, or windy it might be!

Date:

Astronomy

Apr. 04, 2013 Rise Set
Actual Time 6:09 AM AKDT 7:30 PM AKDT
Civil Twilight 5:31 AM AKDT 8:07 PM AKDT
Nautical Twilight 4:46 AM AKDT 8:53 PM AKDT
Astronomical Twilight 3:55 AM AKDT 9:45 PM AKDT
Moon 3:35 AM AKDT (4/4) 1:04 PM AKDT (4/4)
Length of Visible Light 14h 35m
Length of Day
13h 20m
Waning Crescent, 32% of the Moon is Illuminated
Apr 4
Waning Crescent
Apr 10
New
Apr 18
First Quarter
Apr 25
Full
May 2
Last Quarter

Hourly Weather History & Observations

Time (AKDT) Temp. Windchill Dew Point Humidity Pressure Visibility Wind Dir Wind Speed Gust Speed Precip Events Conditions
12:53 AM 42.1 °F 38.4 °F 33.1 °F 70% 29.99 in 10.0 mi NNW 5.8 mph - N/A   Overcast
1:53 AM 42.1 °F 38.4 °F 35.1 °F 76% 29.97 in 10.0 mi NW 5.8 mph - N/A   Overcast
2:53 AM 42.1 °F 39.2 °F 35.1 °F 76% 29.94 in 10.0 mi NNW 4.6 mph - N/A   Overcast
3:53 AM 42.1 °F 38.4 °F 35.1 °F 76% 29.92 in 10.0 mi NNW 5.8 mph - N/A   Mostly Cloudy
4:53 AM 42.1 °F 38.4 °F 34.0 °F 73% 29.89 in 10.0 mi NW 5.8 mph - N/A   Overcast
5:53 AM 42.1 °F 37.7 °F 33.1 °F 70% 29.87 in 10.0 mi NNW 6.9 mph - N/A   Overcast
6:53 AM 42.1 °F 37.7 °F 33.1 °F 70% 29.85 in 10.0 mi NNW 6.9 mph - N/A   Overcast
7:53 AM 43.0 °F 37.7 °F 33.1 °F 68% 29.83 in 10.0 mi NW 9.2 mph - N/A   Overcast
8:53 AM 44.1 °F 39.5 °F 33.1 °F 65% 29.80 in 10.0 mi NNW 8.1 mph - N/A   Overcast
9:53 AM 48.9 °F - 32.0 °F 52% 29.78 in 10.0 mi NW 5.8 mph - N/A   Overcast
10:53 AM 48.9 °F - 32.0 °F 52% 29.76 in 10.0 mi NW 6.9 mph - N/A   Overcast
11:53 AM 50.0 °F - 32.0 °F 50% 29.75 in 10.0 mi NW 5.8 mph - N/A   Overcast
12:53 PM 51.1 °F - 30.0 °F 44% 29.73 in 10.0 mi NNW 6.9 mph - N/A   Overcast
1:53 PM 50.0 °F - 33.1 °F 52% 29.71 in 10.0 mi NW 8.1 mph - N/A   Overcast
2:53 PM 51.1 °F - 35.1 °F 54% 29.69 in 10.0 mi WNW 4.6 mph - N/A   Overcast
3:53 PM 48.9 °F - 35.1 °F 59% 29.66 in 10.0 mi NW 4.6 mph - N/A   Overcast
4:53 PM 48.9 °F - 35.1 °F 59% 29.63 in 10.0 mi WNW 3.5 mph - N/A   Overcast
5:53 PM 48.9 °F - 35.1 °F 59% 29.61 in 10.0 mi NW 3.5 mph - N/A   Overcast
6:53 PM 48.0 °F - 32.0 °F 54% 29.59 in 10.0 mi NNW 4.6 mph - N/A   Overcast
7:53 PM 46.9 °F - 32.0 °F 56% 29.57 in 10.0 mi NNW 4.6 mph - N/A   Overcast
8:53 PM 46.0 °F 44.8 °F 35.1 °F 66% 29.56 in 10.0 mi NNW 3.5 mph - N/A   Overcast
9:53 PM 45.0 °F - 36.0 °F 71% 29.55 in 10.0 mi Calm Calm - N/A   Overcast
10:53 PM 44.1 °F - 37.0 °F 76% 29.55 in 10.0 mi Calm Calm - 0.00 in Rain Light Rain
11:53 PM 44.1 °F - 37.0 °F 76% 29.54 in 10.0 mi Calm Calm - 0.00 in   Overcast